Hourly Weather Barsuki

Today, 18 April, Sunday

Time Temperature Precipitation Wind Pressure Humidity
00:00 +8°C° 1.7 mm 3 mps 746 mmHg 93%
01:00 +8°C° 1.6 mm 3 mps 746 mmHg 92%
02:00 +7°C° 1.6 mm 2 mps 746 mmHg 92%
03:00 +6°C° 1.6 mm 2 mps 747 mmHg 91%
04:00 +7°C° 0.4 mm 1 mps 747 mmHg 91%
05:00 +7°C° 0.4 mm 1 mps 747 mmHg 91%
06:00 +7°C° 0.4 mm 1 mps 747 mmHg 91%
07:00 +8°C° 0 mm 1 mps 747 mmHg 87%
08:00 +8°C° 0 mm 1 mps 747 mmHg 82%
09:00 +9°C° 0 mm 1 mps 748 mmHg 78%
10:00 +10°C° 0.2 mm 1 mps 748 mmHg 74%
11:00 +9°C° 0.2 mm 2 mps 748 mmHg 71%
12:00 +10°C° 0.2 mm 3 mps 748 mmHg 67%
13:00 +10°C° 0.5 mm 3 mps 748 mmHg 70%
14:00 +10°C° 0.5 mm 3 mps 748 mmHg 73%
15:00 +9°C° 0.5 mm 3 mps 748 mmHg 76%
16:00 +9°C° 0.7 mm 3 mps 748 mmHg 78%
17:00 +8°C° 0.7 mm 4 mps 748 mmHg 79%
18:00 +8°C° 0.7 mm 4 mps 748 mmHg 81%
19:00 +7°C° 0.6 mm 4 mps 748 mmHg 83%
20:00 +7°C° 0.6 mm 4 mps 748 mmHg 86%
21:00 +6°C° 0.6 mm 4 mps 749 mmHg 89%
22:00 +6°C° 0.1 mm 4 mps 749 mmHg 90%
23:00 +6°C° 0.1 mm 4 mps 749 mmHg 91%

Tomorrow, 19 April, Monday

Time Temperature Precipitation Wind Pressure Humidity
00:00 +5°C° 0.1 mm 4 mps 749 mmHg 92%
01:00 +5°C° 0.1 mm 5 mps 749 mmHg 93%
02:00 +5°C° 0.1 mm 5 mps 749 mmHg 94%
03:00 +5°C° 0.1 mm 5 mps 749 mmHg 95%
04:00 +5°C° 0 mm 5 mps 749 mmHg 94%
05:00 +5°C° 0 mm 5 mps 749 mmHg 94%
06:00 +4°C° 0 mm 6 mps 749 mmHg 93%
07:00 +5°C° 0.4 mm 5 mps 749 mmHg 93%
08:00 +5°C° 0.4 mm 5 mps 749 mmHg 92%
09:00 +5°C° 0.4 mm 5 mps 749 mmHg 92%
10:00 +4°C° 0.1 mm 6 mps 749 mmHg 93%
11:00 +3°C° 0.1 mm 6 mps 749 mmHg 94%
12:00 +3°C° 0.1 mm 6 mps 749 mmHg 95%
13:00 +2°C° 0.1 mm 6 mps 749 mmHg 95%
14:00 +2°C° 0.1 mm 6 mps 750 mmHg 95%
15:00 +1°C° 0.1 mm 6 mps 750 mmHg 95%
16:00 +1°C° 0.3 mm 6 mps 750 mmHg 96%
17:00 +1°C° 0.3 mm 6 mps 750 mmHg 96%
18:00 +1°C° 0.3 mm 6 mps 750 mmHg 96%
19:00 +1°C° 0.2 mm 6 mps 750 mmHg 96%
20:00 +1°C° 0.2 mm 6 mps 750 mmHg 96%
21:00 +2°C° 0.2 mm 6 mps 750 mmHg 96%
22:00 +2°C° 0.2 mm 6 mps 749 mmHg 95%
23:00 +2°C° 0.2 mm 6 mps 749 mmHg 94%

Day after tomorrow, 20 April, Tuesday

Time Temperature Precipitation Wind Pressure Humidity
00:00 +2°C° 0.2 mm 6 mps 749 mmHg 93%
01:00 +2°C° 0.7 mm 6 mps 748 mmHg 94%
02:00 +2°C° 0.7 mm 6 mps 748 mmHg 95%
03:00 +2°C° 0.7 mm 6 mps 748 mmHg 96%
04:00 +2°C° 0.4 mm 6 mps 748 mmHg 96%
05:00 +2°C° 0.4 mm 6 mps 748 mmHg 95%
06:00 +2°C° 0.4 mm 6 mps 748 mmHg 95%
07:00 +3°C° 0.2 mm 6 mps 748 mmHg 94%
08:00 +3°C° 0.2 mm 6 mps 747 mmHg 93%
09:00 +3°C° 0.2 mm 6 mps 747 mmHg 93%
10:00 +4°C° 0 mm 7 mps 747 mmHg 92%
11:00 +4°C° 0 mm 7 mps 747 mmHg 91%
12:00 +4°C° 0 mm 7 mps 747 mmHg 90%
13:00 +4°C° 0.1 mm 7 mps 747 mmHg 89%
14:00 +5°C° 0.1 mm 7 mps 746 mmHg 88%
15:00 +5°C° 0.1 mm 8 mps 746 mmHg 87%
16:00 +4°C° 0.3 mm 8 mps 745 mmHg 88%
17:00 +4°C° 0.3 mm 8 mps 744 mmHg 89%
18:00 +3°C° 0.3 mm 9 mps 743 mmHg 90%
19:00 +3°C° 1.9 mm 9 mps 742 mmHg 90%
20:00 +3°C° 1.9 mm 10 mps 741 mmHg 91%
21:00 +3°C° 1.9 mm 10 mps 740 mmHg 91%
22:00 +2°C° 2.7 mm 11 mps 739 mmHg 92%
23:00 +2°C° 2.7 mm 11 mps 738 mmHg 92%

21 April, Wednesday

Time Temperature Precipitation Wind Pressure Humidity
00:00 +2°C° 2.7 mm 11 mps 737 mmHg 93%
01:00 +3°C° 0.8 mm 11 mps 736 mmHg 93%
02:00 +3°C° 0.8 mm 10 mps 735 mmHg 93%
03:00 +3°C° 0.8 mm 10 mps 734 mmHg 93%
04:00 +5°C° 0.1 mm 9 mps 734 mmHg 93%
05:00 +6°C° 0.1 mm 8 mps 734 mmHg 93%
06:00 +6°C° 0.1 mm 8 mps 734 mmHg 93%
07:00 +6°C° 0.5 mm 7 mps 734 mmHg 92%
08:00 +6°C° 0.5 mm 7 mps 733 mmHg 91%
09:00 +6°C° 0.5 mm 7 mps 733 mmHg 90%
10:00 +5°C° 0.4 mm 7 mps 734 mmHg 91%
11:00 +4°C° 0.4 mm 7 mps 734 mmHg 92%
12:00 +2°C° 0.4 mm 8 mps 734 mmHg 92%
13:00 +2°C° 0.1 mm 8 mps 735 mmHg 93%
14:00 +2°C° 0.1 mm 8 mps 736 mmHg 93%
15:00 +2°C° 0.1 mm 8 mps 736 mmHg 93%
16:00 +2°C° 0 mm 8 mps 738 mmHg 90%
17:00 +3°C° 0 mm 7 mps 739 mmHg 88%
18:00 +3°C° 0 mm 7 mps 741 mmHg 85%
19:00 +3°C° 0.1 mm 7 mps 742 mmHg 85%
20:00 +3°C° 0.1 mm 6 mps 743 mmHg 85%
21:00 +3°C° 0.1 mm 6 mps 744 mmHg 85%
22:00 +3°C° 0 mm 5 mps 744 mmHg 87%
23:00 +3°C° 0 mm 5 mps 745 mmHg 88%

22 April, Thursday

Time Temperature Precipitation Wind Pressure Humidity
00:00 +4°C° 0 mm 4 mps 745 mmHg 90%
01:00 +4°C° 0 mm 4 mps 745 mmHg 90%
02:00 +4°C° 0 mm 4 mps 746 mmHg 90%
03:00 +4°C° 0 mm 4 mps 746 mmHg 90%
04:00 +4°C° 0.1 mm 4 mps 747 mmHg 89%
05:00 +4°C° 0.1 mm 4 mps 747 mmHg 88%
06:00 +4°C° 0.1 mm 3 mps 748 mmHg 87%
07:00 +5°C° 0 mm 4 mps 748 mmHg 80%
08:00 +6°C° 0 mm 4 mps 749 mmHg 73%
09:00 +8°C° 0 mm 4 mps 749 mmHg 66%
10:00 +10°C° 0 mm 4 mps 749 mmHg 61%
11:00 +10°C° 0 mm 4 mps 750 mmHg 55%
12:00 +11°C° 0 mm 4 mps 750 mmHg 50%
13:00 +12°C° 0 mm 4 mps 750 mmHg 50%
14:00 +12°C° 0 mm 4 mps 750 mmHg 51%
15:00 +12°C° 0 mm 4 mps 750 mmHg 52%
16:00 +12°C° 0 mm 4 mps 751 mmHg 55%
17:00 +12°C° 0 mm 3 mps 751 mmHg 58%
18:00 +12°C° 0 mm 3 mps 751 mmHg 61%
19:00 +10°C° 0 mm 3 mps 751 mmHg 67%
20:00 +9°C° 0 mm 3 mps 752 mmHg 72%
21:00 +8°C° 0 mm 2 mps 752 mmHg 78%
22:00 +7°C° 0 mm 2 mps 752 mmHg 80%
23:00 +7°C° 0 mm 2 mps 752 mmHg 83%

23 April, Friday

Time Temperature Precipitation Wind Pressure Humidity
00:00 +7°C° 0 mm 2 mps 753 mmHg 85%
01:00 +6°C° 0 mm 2 mps 753 mmHg 86%
02:00 +6°C° 0 mm 2 mps 753 mmHg 86%
03:00 +6°C° 0 mm 2 mps 753 mmHg 87%
04:00 +6°C° 0 mm 2 mps 753 mmHg 87%
05:00 +7°C° 0 mm 1 mps 753 mmHg 87%
06:00 +7°C° 0 mm 1 mps 753 mmHg 87%
07:00 +8°C° 0 mm 1 mps 754 mmHg 81%
08:00 +10°C° 0 mm 1 mps 754 mmHg 76%
09:00 +11°C° 0 mm 1 mps 754 mmHg 70%
10:00 +13°C° 0 mm 2 mps 754 mmHg 66%
11:00 +14°C° 0 mm 2 mps 754 mmHg 62%
12:00 +15°C° 0 mm 2 mps 754 mmHg 57%
13:00 +15°C° 0.1 mm 1 mps 754 mmHg 54%
14:00 +16°C° 0.1 mm 1 mps 754 mmHg 52%
15:00 +16°C° 0.1 mm 1 mps 754 mmHg 49%
16:00 +16°C° 0.1 mm 1 mps 754 mmHg 52%
17:00 +16°C° 0.1 mm 2 mps 754 mmHg 56%
18:00 +15°C° 0.1 mm 2 mps 755 mmHg 60%
19:00 +14°C° 0.2 mm 2 mps 755 mmHg 66%
20:00 +12°C° 0.2 mm 2 mps 755 mmHg 72%
21:00 +10°C° 0.2 mm 2 mps 755 mmHg 78%
22:00 +9°C° 0 mm 2 mps 756 mmHg 81%
23:00 +9°C° 0 mm 3 mps 756 mmHg 84%
Show more